Time,TemperatureF,DewpointF,PressureIn,WindDirection,WindDirectionDegrees,WindSpeedMPH,WindSpeedGustMPH,Humidity,HourlyPrecipIn,Conditions,Clouds,dailyrainin,SolarRadiationWatts/m^2,SoftwareType,DateUTC
2013-01-10 00:00:00,59.6,41.5,30.52,East,82,10.0,11.0,51,0.00,,SCT,0.00,0.00,VWS V14.01,2013-01-10 05:00:00,
2013-01-10 00:01:00,59.6,41.0,30.52,ENE,76,8.0,11.0,50,0.00,,SCT,0.00,0.00,VWS V14.01,2013-01-10 05:01:00,
2013-01-10 00:03:00,59.7,40.0,30.52,East,92,11.0,12.0,48,0.00,,SCT,0.00,0.00,VWS V14.01,2013-01-10 05:03:00,
2013-01-10 00:08:00,59.8,39.0,30.52,ESE,114,15.0,17.0,46,0.00,,SCT,0.00,0.00,VWS V14.01,2013-01-10 05:08:00,
2013-01-10 00:13:00,59.8,37.9,30.52,East,82,6.0,17.0,44,0.00,,SCT,0.00,0.00,VWS V14.01,2013-01-10 05:13:00,
2013-01-10 00:18:00,59.4,36.3,30.52,ESE,116,12.0,17.0,42,0.00,,SCT,0.00,0.00,VWS V14.01,2013-01-10 05:18:00,
2013-01-10 00:23:00,59.3,36.2,30.53,East,92,5.0,17.0,42,0.00,,SCT,0.00,0.00,VWS V14.01,2013-01-10 05:23:00,
2013-01-10 00:28:00,58.9,35.3,30.53,East,93,6.0,17.0,41,0.00,,SCT,0.00,0.00,VWS V14.01,2013-01-10 05:28:00,
2013-01-10 00:33:00,58.7,33.8,30.52,SE,128,4.0,17.0,39,0.00,,SCT,0.00,0.00,VWS V14.01,2013-01-10 05:33:00,
2013-01-10 00:37:00,58.3,34.1,30.53,SE,136,0.0,17.0,40,0.00,,SCT,0.00,0.00,VWS V14.01,2013-01-10 05:37:00,
2013-01-10 00:42:00,57.5,34.0,30.53,SSE,152,0.0,17.0,41,0.00,,SCT,0.00,0.00,VWS V14.01,2013-01-10 05:42:00,
2013-01-10 00:47:00,57.0,34.2,30.53,SSE,152,1.0,17.0,42,0.00,,SCT,0.00,0.00,VWS V14.01,2013-01-10 05:47:00,
2013-01-10 00:52:00,56.8,34.0,30.53,ESE,111,0.0,17.0,42,0.00,,SCT,0.00,0.00,VWS V14.01,2013-01-10 05:52:00,
2013-01-10 00:57:00,56.6,33.2,30.53,ESE,110,0.0,1.0,41,0.00,,SCT,0.00,0.00,VWS V14.01,2013-01-10 05:57:00,
2013-01-10 01:00:00,56.7,33.3,30.53,ESE,111,0.0,17.0,41,0.00,,SCT,0.00,0.00,VWS V14.01,2013-01-10 06:00:00,
2013-01-10 01:02:00,56.5,33.1,30.53,ESE,111,0.0,1.0,41,0.00,,SCT,0.00,0.00,VWS V14.01,2013-01-10 06:02:00,
2013-01-10 01:07:00,56.5,33.1,30.53,East,96,1.0,1.0,41,0.00,,SCT,0.00,0.00,VWS V14.01,2013-01-10 06:07:00,
2013-01-10 01:12:00,56.7,32.0,30.53,East,96,1.0,4.0,39,0.00,,SCT,0.00,0.00,VWS V14.01,2013-01-10 06:12:00,
2013-01-10 01:17:00,56.4,31.1,30.53,ESE,116,4.0,6.0,38,0.00,,SCT,0.00,0.00,VWS V14.01,2013-01-10 06:17:00,
2013-01-10 01:22:00,56.3,29.7,30.53,East,95,2.0,7.0,36,0.00,,SCT,0.00,0.00,VWS V14.01,2013-01-10 06:22:00,
2013-01-10 01:27:00,56.4,29.1,30.54,ESE,103,4.0,7.0,35,0.00,,SCT,0.00,0.00,VWS V14.01,2013-01-10 06:27:00,
2013-01-10 01:32:00,56.4,29.1,30.54,ESE,102,5.0,7.0,35,0.00,,SCT,0.00,0.00,VWS V14.01,2013-01-10 06:32:00,
2013-01-10 01:37:00,56.5,28.5,30.54,ESE,108,4.0,7.0,34,0.00,,SCT,0.00,0.00,VWS V14.01,2013-01-10 06:37:00,
2013-01-10 01:42:00,56.4,28.4,30.54,ESE,108,6.0,7.0,34,0.00,,SCT,0.00,0.00,VWS V14.01,2013-01-10 06:42:00,
2013-01-10 01:47:00,56.2,28.2,30.55,ESE,115,6.0,7.0,34,0.00,,SCT,0.00,0.00,VWS V14.01,2013-01-10 06:47:00,
2013-01-10 01:52:00,56.1,28.1,30.55,East,100,6.0,8.0,34,0.00,,SCT,0.00,0.00,VWS V14.01,2013-01-10 06:52:00,
2013-01-10 01:57:00,56.1,28.1,30.55,East,90,8.0,9.0,34,0.00,,SCT,0.00,0.00,VWS V14.01,2013-01-10 06:57:00,
2013-01-10 02:00:00,56.1,28.1,30.55,ESE,112,7.0,8.0,34,0.00,,SCT,0.00,0.00,VWS V14.01,2013-01-10 07:00:00,
2013-01-10 02:02:00,55.4,29.6,30.55,ESE,114,2.0,9.0,37,0.00,,SCT,0.00,0.00,VWS V14.01,2013-01-10 07:02:00,
2013-01-10 02:07:00,54.0,29.0,30.55,WNW,301,3.0,9.0,38,0.00,,SCT,0.00,0.00,VWS V14.01,2013-01-10 07:07:00,
2013-01-10 02:12:00,53.5,29.2,30.56,WNW,292,3.0,9.0,39,0.00,,SCT,0.00,0.00,VWS V14.01,2013-01-10 07:12:00,
2013-01-10 02:17:00,53.3,29.0,30.56,WNW,284,2.0,9.0,39,0.00,,SCT,0.00,0.00,VWS V14.01,2013-01-10 07:17:00,
2013-01-10 02:22:00,53.6,28.6,30.56,WNW,284,0.0,9.0,38,0.00,,SCT,0.00,0.00,VWS V14.01,2013-01-10 07:22:00,
2013-01-10 02:27:00,54.1,28.4,30.56,WNW,284,0.0,9.0,37,0.00,,SCT,0.00,0.00,VWS V14.01,2013-01-10 07:27:00,
2013-01-10 02:32:00,54.4,28.0,30.56,WNW,284,1.0,9.0,36,0.00,,SCT,0.00,0.00,VWS V14.01,2013-01-10 07:32:00,
2013-01-10 02:37:00,54.2,27.9,30.56,WNW,284,0.0,9.0,36,0.00,,SCT,0.00,0.00,VWS V14.01,2013-01-10 07:37:00,
2013-01-10 02:42:00,54.5,28.1,30.56,WNW,284,0.0,9.0,36,0.00,,SCT,0.00,0.00,VWS V14.01,2013-01-10 07:42:00,
2013-01-10 02:47:00,54.6,27.5,30.56,WNW,284,0.0,9.0,35,0.00,,SCT,0.00,0.00,VWS V14.01,2013-01-10 07:47:00,
2013-01-10 02:52:00,54.8,27.7,30.56,WNW,284,0.0,9.0,35,0.00,,SCT,0.00,0.00,VWS V14.01,2013-01-10 07:52:00,
2013-01-10 02:57:00,53.9,28.2,30.56,WNW,284,0.0,1.0,37,0.00,,SCT,0.00,0.00,VWS V14.01,2013-01-10 07:57:00,
2013-01-10 03:00:00,54.4,28.0,30.56,WNW,284,0.0,9.0,36,0.00,,SCT,0.00,0.00,VWS V14.01,2013-01-10 08:00:00,
2013-01-10 03:02:00,53.3,27.7,30.56,WNW,284,0.0,1.0,37,0.00,,SCT,0.00,0.00,VWS V14.01,2013-01-10 08:02:00,
2013-01-10 03:07:00,52.9,28.0,30.57,WNW,284,0.0,1.0,38,0.00,,SCT,0.00,0.00,VWS V14.01,2013-01-10 08:07:00,
2013-01-10 03:12:00,53.1,27.5,30.56,SW,236,1.0,3.0,37,0.00,,SCT,0.00,0.00,VWS V14.01,2013-01-10 08:12:00,
2013-01-10 03:17:00,53.6,28.0,30.57,SW,236,1.0,3.0,37,0.00,,SCT,0.00,0.00,VWS V14.01,2013-01-10 08:17:00,
2013-01-10 03:22:00,53.6,28.6,30.57,SSE,147,1.0,5.0,38,0.00,,SCT,0.00,0.00,VWS V14.01,2013-01-10 08:22:00,
2013-01-10 03:27:00,52.9,28.6,30.57,SSE,167,1.0,5.0,39,0.00,,SCT,0.00,0.00,VWS V14.01,2013-01-10 08:27:00,
2013-01-10 03:32:00,49.5,28.5,30.57,WSW,238,0.0,5.0,44,0.00,,SCT,0.00,0.00,VWS V14.01,2013-01-10 08:32:00,
2013-01-10 03:37:00,49.5,29.1,30.56,WSW,238,0.0,5.0,45,0.00,,SCT,0.00,0.00,VWS V14.01,2013-01-10 08:37:00,
2013-01-10 03:42:00,49.5,29.1,30.57,WSW,238,0.0,5.0,45,0.00,,SCT,0.00,0.00,VWS V14.01,2013-01-10 08:42:00,
2013-01-10 03:47:00,51.2,28.9,30.57,SW,232,0.0,5.0,42,0.00,,SCT,0.00,0.00,VWS V14.01,2013-01-10 08:47:00,
2013-01-10 03:52:00,51.4,29.1,30.56,SW,232,0.0,5.0,42,0.00,,SCT,0.00,0.00,VWS V14.01,2013-01-10 08:52:00,
2013-01-10 03:57:00,51.2,28.9,30.56,NNW,340,2.0,3.0,42,0.00,,SCT,0.00,0.00,VWS V14.01,2013-01-10 08:57:00,
2013-01-10 04:00:00,51.4,29.1,30.56,SW,232,0.0,5.0,42,0.00,,SCT,0.00,0.00,VWS V14.01,2013-01-10 09:00:00,
2013-01-10 04:02:00,51.1,28.8,30.56,NNW,340,1.0,3.0,42,0.00,,SCT,0.00,0.00,VWS V14.01,2013-01-10 09:02:00,
2013-01-10 04:07:00,50.9,28.6,30.56,NNW,340,2.0,3.0,42,0.00,,SCT,0.00,0.00,VWS V14.01,2013-01-10 09:07:00,
2013-01-10 04:12:00,51.0,28.7,30.56,NNW,340,1.0,3.0,42,0.00,,SCT,0.00,0.00,VWS V14.01,2013-01-10 09:12:00,
2013-01-10 04:17:00,51.3,29.0,30.56,NNW,340,0.0,3.0,42,0.00,,SCT,0.00,0.00,VWS V14.01,2013-01-10 09:17:00,
2013-01-10 04:22:00,51.4,29.1,30.57,NNW,340,0.0,3.0,42,0.00,,SCT,0.00,0.00,VWS V14.01,2013-01-10 09:22:00,
2013-01-10 04:27:00,51.7,28.8,30.57,NNW,340,1.0,3.0,41,0.00,,SCT,0.00,0.00,VWS V14.01,2013-01-10 09:27:00,
2013-01-10 04:32:00,51.5,28.6,30.57,NNE,14,5.0,6.0,41,0.00,,SCT,0.00,0.00,VWS V14.01,2013-01-10 09:32:00,
2013-01-10 04:37:00,51.9,29.0,30.57,NNE,14,1.0,6.0,41,0.00,,SCT,0.00,0.00,VWS V14.01,2013-01-10 09:37:00,
2013-01-10 04:42:00,50.7,29.0,30.57,NNE,14,0.0,6.0,43,0.00,,SCT,0.00,0.00,VWS V14.01,2013-01-10 09:42:00,
2013-01-10 04:47:00,49.8,28.8,30.57,NNE,14,1.0,6.0,44,0.00,,SCT,0.00,0.00,VWS V14.01,2013-01-10 09:47:00,
2013-01-10 04:52:00,49.6,29.1,30.58,NNE,14,2.0,6.0,45,0.00,,SCT,0.00,0.00,VWS V14.01,2013-01-10 09:52:00,
2013-01-10 04:57:00,50.0,29.0,30.58,NNW,348,3.0,4.0,44,0.00,,SCT,0.00,0.00,VWS V14.01,2013-01-10 09:57:00,
2013-01-10 05:00:00,49.7,28.7,30.58,NNW,348,3.0,6.0,44,0.00,,SCT,0.00,0.00,VWS V14.01,2013-01-10 10:00:00,
2013-01-10 05:02:00,49.0,28.6,30.58,NNW,348,1.0,4.0,45,0.00,,SCT,0.00,0.00,VWS V14.01,2013-01-10 10:02:00,
2013-01-10 05:07:00,49.2,29.3,30.58,NNW,347,0.0,4.0,46,0.00,,SCT,0.00,0.00,VWS V14.01,2013-01-10 10:07:00,
2013-01-10 05:12:00,48.7,29.4,30.58,NNW,342,2.0,4.0,47,0.00,,SCT,0.00,0.00,VWS V14.01,2013-01-10 10:12:00,
2013-01-10 05:17:00,47.9,29.7,30.58,NNW,342,0.0,4.0,49,0.00,,SCT,0.00,0.00,VWS V14.01,2013-01-10 10:17:00,
2013-01-10 05:22:00,48.8,29.5,30.58,NNW,342,1.0,4.0,47,0.00,,SCT,0.00,0.00,VWS V14.01,2013-01-10 10:22:00,
2013-01-10 05:27:00,49.5,29.6,30.58,North,355,2.0,4.0,46,0.00,,SCT,0.00,0.00,VWS V14.01,2013-01-10 10:27:00,
2013-01-10 05:32:00,49.7,29.2,30.59,North,355,0.0,4.0,45,0.00,,SCT,0.00,0.00,VWS V14.01,2013-01-10 10:32:00,
2013-01-10 05:37:00,49.1,29.2,30.59,North,355,2.0,4.0,46,0.00,,SCT,0.00,0.00,VWS V14.01,2013-01-10 10:37:00,
2013-01-10 05:42:00,48.7,29.4,30.60,North,355,3.0,4.0,47,0.00,,SCT,0.00,0.00,VWS V14.01,2013-01-10 10:42:00,
2013-01-10 05:47:00,48.7,29.4,30.60,North,355,2.0,4.0,47,0.00,,SCT,0.00,0.00,VWS V14.01,2013-01-10 10:47:00,
2013-01-10 05:52:00,48.7,29.4,30.60,North,355,0.0,4.0,47,0.00,,SCT,0.00,0.00,VWS V14.01,2013-01-10 10:52:00,
2013-01-10 05:57:00,48.5,29.2,30.60,North,355,2.0,3.0,47,0.00,,SCT,0.00,0.00,VWS V14.01,2013-01-10 10:57:00,
2013-01-10 06:00:00,48.4,29.1,30.60,North,355,1.0,4.0,47,0.00,,SCT,0.00,0.00,VWS V14.01,2013-01-10 11:00:00,
2013-01-10 06:02:00,48.8,29.0,30.60,North,355,2.0,3.0,46,0.00,,SCT,0.00,0.00,VWS V14.01,2013-01-10 11:02:00,
2013-01-10 06:07:00,49.6,29.1,30.61,North,355,1.0,3.0,45,0.00,,SCT,0.00,0.00,VWS V14.01,2013-01-10 11:07:00,
2013-01-10 06:12:00,49.0,29.1,30.61,North,355,0.0,3.0,46,0.00,,SCT,0.00,0.00,VWS V14.01,2013-01-10 11:12:00,
2013-01-10 06:17:00,47.2,29.0,30.61,North,355,0.0,3.0,49,0.00,,SCT,0.00,0.00,VWS V14.01,2013-01-10 11:17:00,
2013-01-10 06:22:00,46.2,29.6,30.61,North,355,3.0,3.0,52,0.00,,SCT,0.00,0.00,VWS V14.01,2013-01-10 11:22:00,
2013-01-10 06:27:00,47.6,29.9,30.61,North,355,0.0,3.0,50,0.00,,SCT,0.00,0.00,VWS V14.01,2013-01-10 11:27:00,
2013-01-10 06:32:00,47.3,29.6,30.62,North,355,1.0,3.0,50,0.00,,SCT,0.00,0.00,VWS V14.01,2013-01-10 11:32:00,
2013-01-10 06:37:00,47.3,29.6,30.62,North,355,1.0,3.0,50,0.00,,SCT,0.00,0.00,VWS V14.01,2013-01-10 11:37:00,
2013-01-10 06:42:00,47.7,29.5,30.62,North,355,0.0,3.0,49,0.00,,SCT,0.00,0.00,VWS V14.01,2013-01-10 11:42:00,
2013-01-10 06:47:00,46.5,28.9,30.62,North,355,0.0,3.0,50,0.00,,SCT,0.00,0.00,VWS V14.01,2013-01-10 11:47:00,
2013-01-10 06:52:00,45.6,29.0,30.62,North,355,0.0,3.0,52,0.00,,SCT,0.00,0.00,VWS V14.01,2013-01-10 11:52:00,
2013-01-10 06:57:00,44.6,29.5,30.63,North,5,0.0,2.0,55,0.00,,SCT,0.00,0.00,VWS V14.01,2013-01-10 11:57:00,
2013-01-10 07:00:00,45.7,29.1,30.63,North,5,2.0,3.0,52,0.00,,SCT,0.00,0.00,VWS V14.01,2013-01-10 12:00:00,
2013-01-10 07:02:00,42.5,29.6,30.63,North,5,0.0,2.0,60,0.00,,SCT,0.00,0.00,VWS V14.01,2013-01-10 12:02:00,
2013-01-10 07:07:00,40.9,29.7,30.63,North,5,0.0,2.0,64,0.00,,SCT,0.00,0.00,VWS V14.01,2013-01-10 12:07:00,
2013-01-10 07:12:00,41.5,29.9,30.63,North,5,1.0,2.0,63,0.00,,SCT,0.00,0.00,VWS V14.01,2013-01-10 12:12:00,
2013-01-10 07:17:00,42.7,29.8,30.64,North,5,1.0,2.0,60,0.00,,SCT,0.00,0.00,VWS V14.01,2013-01-10 12:17:00,
2013-01-10 07:22:00,43.0,30.1,30.64,North,5,0.0,2.0,60,0.00,,SCT,0.00,0.00,VWS V14.01,2013-01-10 12:22:00,
2013-01-10 07:27:00,43.0,30.1,30.64,North,5,0.0,2.0,60,0.00,,SCT,0.00,0.00,VWS V14.01,2013-01-10 12:27:00,
2013-01-10 07:32:00,43.0,30.1,30.64,North,5,0.0,2.0,60,0.00,,SCT,0.00,0.00,VWS V14.01,2013-01-10 12:32:00,
2013-01-10 07:37:00,43.0,30.1,30.64,North,5,0.0,2.0,60,0.00,,SCT,0.00,0.00,VWS V14.01,2013-01-10 12:37:00,
2013-01-10 07:42:00,43.0,30.1,30.65,North,5,0.0,2.0,60,0.00,,SCT,0.00,0.00,VWS V14.01,2013-01-10 12:42:00,
2013-01-10 07:47:00,43.0,30.1,30.65,North,5,0.0,2.0,60,0.00,,SCT,0.00,0.00,VWS V14.01,2013-01-10 12:47:00,
2013-01-10 07:52:00,40.7,30.2,30.66,SSW,202,2.0,5.0,66,0.00,,SCT,0.00,18.00,VWS V14.01,2013-01-10 12:52:00,
2013-01-10 07:57:00,41.5,30.6,30.66,SSW,202,0.0,3.0,65,0.00,,SCT,0.00,23.00,VWS V14.01,2013-01-10 12:57:00,
2013-01-10 08:00:00,40.8,30.3,30.66,SSW,202,2.0,5.0,66,0.00,,SCT,0.00,19.00,VWS V14.01,2013-01-10 13:00:00,
2013-01-10 08:02:00,42.4,30.3,30.67,SSW,210,3.0,4.0,62,0.00,,SCT,0.00,28.00,VWS V14.01,2013-01-10 13:02:00,
2013-01-10 08:07:00,43.0,30.5,30.67,SW,217,4.0,4.0,61,0.00,,SCT,0.00,35.00,VWS V14.01,2013-01-10 13:07:00,
2013-01-10 08:12:00,43.0,30.5,30.67,SW,215,1.0,4.0,61,0.00,,SCT,0.00,44.00,VWS V14.01,2013-01-10 13:12:00,
2013-01-10 08:17:00,43.7,30.3,30.67,SW,214,2.0,4.0,59,0.00,,SCT,0.00,53.00,VWS V14.01,2013-01-10 13:17:00,
2013-01-10 08:22:00,43.8,30.4,30.67,SW,214,0.0,4.0,59,0.00,,SCT,0.00,62.00,VWS V14.01,2013-01-10 13:22:00,
2013-01-10 08:27:00,42.4,30.7,30.68,SW,214,0.0,4.0,63,0.00,,SCT,0.00,70.00,VWS V14.01,2013-01-10 13:27:00,
2013-01-10 08:32:00,42.4,30.7,30.68,SW,214,2.0,4.0,63,0.00,,SCT,0.00,86.00,VWS V14.01,2013-01-10 13:32:00,
2013-01-10 08:37:00,42.3,31.0,30.68,SSW,202,5.0,5.0,64,0.00,,SCT,0.00,107.00,VWS V14.01,2013-01-10 13:37:00,
2013-01-10 08:42:00,44.0,32.2,30.69,SSW,198,1.0,5.0,63,0.00,,SCT,0.00,149.00,VWS V14.01,2013-01-10 13:42:00,
2013-01-10 08:47:00,42.7,32.5,30.69,SW,218,2.0,5.0,67,0.00,,SCT,0.00,197.00,VWS V14.01,2013-01-10 13:47:00,
2013-01-10 08:52:00,42.2,32.0,30.68,SW,224,3.0,5.0,67,0.00,,SCT,0.00,97.00,VWS V14.01,2013-01-10 13:52:00,
2013-01-10 08:57:00,43.3,31.6,30.68,SW,223,4.0,5.0,63,0.00,,SCT,0.00,135.00,VWS V14.01,2013-01-10 13:57:00,
2013-01-10 09:00:00,42.5,31.6,30.68,SW,224,3.0,5.0,65,0.00,,SCT,0.00,128.00,VWS V14.01,2013-01-10 14:00:00,
2013-01-10 09:02:00,45.4,31.9,30.69,SW,223,2.0,5.0,59,0.00,,SCT,0.00,234.00,VWS V14.01,2013-01-10 14:02:00,
2013-01-10 09:07:00,46.6,32.6,30.69,SW,223,0.0,5.0,58,0.00,,SCT,0.00,207.00,VWS V14.01,2013-01-10 14:07:00,
2013-01-10 09:12:00,47.0,33.0,30.69,SW,223,1.0,5.0,58,0.00,,SCT,0.00,250.00,VWS V14.01,2013-01-10 14:12:00,
2013-01-10 09:17:00,47.2,34.5,30.69,SW,223,0.0,5.0,61,0.00,,SCT,0.00,258.00,VWS V14.01,2013-01-10 14:17:00,
2013-01-10 09:22:00,46.8,34.1,30.69,SW,223,0.0,5.0,61,0.00,,SCT,0.00,274.00,VWS V14.01,2013-01-10 14:22:00,
2013-01-10 09:27:00,46.5,35.8,30.69,SW,229,0.0,5.0,66,0.00,,SCT,0.00,287.00,VWS V14.01,2013-01-10 14:27:00,
2013-01-10 09:32:00,47.1,36.0,30.69,SW,230,0.0,5.0,65,0.00,,SCT,0.00,302.00,VWS V14.01,2013-01-10 14:32:00,
2013-01-10 09:37:00,47.4,36.2,30.69,SW,230,0.0,5.0,65,0.00,,SCT,0.00,186.00,VWS V14.01,2013-01-10 14:37:00,
2013-01-10 09:42:00,47.9,34.7,30.69,SW,230,0.0,5.0,60,0.00,,SCT,0.00,371.00,VWS V14.01,2013-01-10 14:42:00,
2013-01-10 09:47:00,49.2,33.7,30.69,SW,230,0.0,5.0,55,0.00,,SCT,0.00,434.00,VWS V14.01,2013-01-10 14:47:00,
2013-01-10 09:52:00,50.7,33.2,30.70,SW,230,0.0,5.0,51,0.00,,SCT,0.00,452.00,VWS V14.01,2013-01-10 14:52:00,
2013-01-10 09:57:00,51.5,33.5,30.69,SW,217,3.0,3.0,50,0.00,,SCT,0.00,455.00,VWS V14.01,2013-01-10 14:57:00,
2013-01-10 10:00:00,51.0,34.0,30.70,SW,230,0.0,5.0,52,0.00,,SCT,0.00,431.00,VWS V14.01,2013-01-10 15:00:00,
2013-01-10 10:02:00,52.3,33.7,30.69,East,101,0.0,5.0,49,0.00,,SCT,0.00,517.00,VWS V14.01,2013-01-10 15:02:00,
2013-01-10 10:07:00,52.7,33.6,30.69,ESE,115,4.0,6.0,48,0.00,,SCT,0.00,557.00,VWS V14.01,2013-01-10 15:07:00,
2013-01-10 10:12:00,53.3,33.1,30.69,SE,146,4.0,6.0,46,0.00,,SCT,0.00,550.00,VWS V14.01,2013-01-10 15:12:00,
2013-01-10 10:17:00,53.6,32.8,30.69,South,182,1.0,6.0,45,0.00,,SCT,0.00,260.00,VWS V14.01,2013-01-10 15:17:00,
2013-01-10 10:22:00,53.4,33.7,30.69,SW,226,3.0,6.0,47,0.00,,SCT,0.00,236.00,VWS V14.01,2013-01-10 15:22:00,
2013-01-10 10:27:00,53.3,33.1,30.69,SW,226,1.0,6.0,46,0.00,,SCT,0.00,190.00,VWS V14.01,2013-01-10 15:27:00,
2013-01-10 10:32:00,53.4,34.2,30.68,SW,226,1.0,6.0,48,0.00,,SCT,0.00,202.00,VWS V14.01,2013-01-10 15:32:00,
2013-01-10 10:37:00,53.5,32.1,30.68,SW,226,1.0,6.0,44,0.00,,SCT,0.00,230.00,VWS V14.01,2013-01-10 15:37:00,
2013-01-10 10:42:00,53.6,32.8,30.68,SW,226,0.0,6.0,45,0.00,,SCT,0.00,206.00,VWS V14.01,2013-01-10 15:42:00,
2013-01-10 10:47:00,54.1,33.2,30.68,SW,226,1.0,6.0,45,0.00,,SCT,0.00,186.00,VWS V14.01,2013-01-10 15:47:00,
2013-01-10 10:52:00,53.8,33.5,30.68,SW,229,0.0,6.0,46,0.00,,SCT,0.00,206.00,VWS V14.01,2013-01-10 15:52:00,
2013-01-10 10:57:00,53.9,33.1,30.67,SW,229,0.0,2.0,45,0.00,,SCT,0.00,207.00,VWS V14.01,2013-01-10 15:57:00,
2013-01-10 11:00:00,53.8,33.0,30.68,SW,229,0.0,6.0,45,0.00,,SCT,0.00,206.00,VWS V14.01,2013-01-10 16:00:00,
2013-01-10 11:02:00,53.9,33.6,30.67,SW,230,3.0,3.0,46,0.00,,SCT,0.00,192.00,VWS V14.01,2013-01-10 16:02:00,
2013-01-10 11:07:00,53.8,33.5,30.68,SW,230,2.0,4.0,46,0.00,,SCT,0.00,199.00,VWS V14.01,2013-01-10 16:07:00,
2013-01-10 11:12:00,53.7,32.9,30.68,WSW,245,4.0,5.0,45,0.00,,SCT,0.00,221.00,VWS V14.01,2013-01-10 16:12:00,
2013-01-10 11:17:00,53.9,33.1,30.67,WSW,247,2.0,5.0,45,0.00,,SCT,0.00,218.00,VWS V14.01,2013-01-10 16:17:00,
2013-01-10 11:22:00,54.3,32.9,30.67,NW,311,1.0,6.0,44,0.00,,SCT,0.00,213.00,VWS V14.01,2013-01-10 16:22:00,
2013-01-10 11:27:00,54.4,33.5,30.67,NW,324,3.0,6.0,45,0.00,,SCT,0.00,209.00,VWS V14.01,2013-01-10 16:27:00,
2013-01-10 11:32:00,54.4,32.4,30.67,NNW,330,0.0,6.0,43,0.00,,SCT,0.00,202.00,VWS V14.01,2013-01-10 16:32:00,
2013-01-10 11:37:00,54.3,32.3,30.66,NNW,330,3.0,6.0,43,0.00,,SCT,0.00,193.00,VWS V14.01,2013-01-10 16:37:00,
2013-01-10 11:42:00,54.6,32.6,30.66,NNW,330,0.0,6.0,43,0.00,,SCT,0.00,227.00,VWS V14.01,2013-01-10 16:42:00,
2013-01-10 11:47:00,54.6,32.6,30.65,WNW,296,2.0,6.0,43,0.00,,SCT,0.00,230.00,VWS V14.01,2013-01-10 16:47:00,
2013-01-10 11:52:00,54.8,33.3,30.65,West,280,2.0,6.0,44,0.00,,SCT,0.00,353.00,VWS V14.01,2013-01-10 16:52:00,
2013-01-10 11:57:00,55.4,33.9,30.65,West,281,3.0,5.0,44,0.00,,SCT,0.00,615.00,VWS V14.01,2013-01-10 16:57:00,
2013-01-10 12:00:00,54.9,33.4,30.65,West,280,0.0,6.0,44,0.00,,SCT,0.00,336.00,VWS V14.01,2013-01-10 17:00:00,
2013-01-10 12:02:00,55.6,33.5,30.64,WNW,283,4.0,6.0,43,0.00,,SCT,0.00,654.00,VWS V14.01,2013-01-10 17:02:00,
2013-01-10 12:07:00,55.5,32.8,30.65,WNW,286,4.0,6.0,42,0.00,,SCT,0.00,462.00,VWS V14.01,2013-01-10 17:07:00,
2013-01-10 12:12:00,55.9,33.2,30.64,SW,227,3.0,6.0,42,0.00,,SCT,0.00,452.00,VWS V14.01,2013-01-10 17:12:00,
2013-01-10 12:17:00,56.1,32.7,30.64,West,263,0.0,6.0,41,0.00,,SCT,0.00,504.00,VWS V14.01,2013-01-10 17:17:00,
2013-01-10 12:22:00,56.9,33.5,30.64,NW,317,0.0,6.0,41,0.00,,SCT,0.00,504.00,VWS V14.01,2013-01-10 17:22:00,
2013-01-10 12:27:00,56.9,33.5,30.64,NW,311,2.0,6.0,41,0.00,,SCT,0.00,497.00,VWS V14.01,2013-01-10 17:27:00,
2013-01-10 12:32:00,57.5,32.8,30.63,NE,48,2.0,6.0,39,0.00,,SCT,0.00,496.00,VWS V14.01,2013-01-10 17:32:00,
2013-01-10 12:37:00,57.7,32.9,30.63,NNE,22,2.0,6.0,39,0.00,,SCT,0.00,503.00,VWS V14.01,2013-01-10 17:37:00,
2013-01-10 12:42:00,57.8,32.4,30.63,NE,48,0.0,6.0,38,0.00,,SCT,0.00,503.00,VWS V14.01,2013-01-10 17:42:00,
2013-01-10 12:47:00,58.0,32.6,30.63,NE,48,0.0,6.0,38,0.00,,SCT,0.00,497.00,VWS V14.01,2013-01-10 17:47:00,
2013-01-10 12:52:00,57.9,32.5,30.62,NE,48,0.0,6.0,38,0.00,,SCT,0.00,490.00,VWS V14.01,2013-01-10 17:52:00,
2013-01-10 12:57:00,58.4,32.2,30.62,ENE,68,0.0,3.0,37,0.00,,SCT,0.00,482.00,VWS V14.01,2013-01-10 17:57:00,
2013-01-10 13:00:00,58.0,33.2,30.62,ENE,66,3.0,6.0,39,0.00,,SCT,0.00,489.00,VWS V14.01,2013-01-10 18:00:00,
2013-01-10 13:02:00,58.7,32.5,30.62,ENE,73,0.0,3.0,37,0.00,,SCT,0.00,476.00,VWS V14.01,2013-01-10 18:02:00,
2013-01-10 13:07:00,58.7,32.5,30.62,SE,132,5.0,6.0,37,0.00,,SCT,0.00,475.00,VWS V14.01,2013-01-10 18:07:00,
2013-01-10 13:12:00,59.0,33.5,30.61,SSE,165,4.0,6.0,38,0.00,,SCT,0.00,468.00,VWS V14.01,2013-01-10 18:12:00,
2013-01-10 13:17:00,59.2,33.6,30.61,South,169,1.0,6.0,38,0.00,,SCT,0.00,464.00,VWS V14.01,2013-01-10 18:17:00,
2013-01-10 13:22:00,59.1,34.2,30.61,SE,143,0.0,6.0,39,0.00,,SCT,0.00,459.00,VWS V14.01,2013-01-10 18:22:00,
2013-01-10 13:27:00,58.6,32.4,30.61,SSW,202,4.0,7.0,37,0.00,,SCT,0.00,462.00,VWS V14.01,2013-01-10 18:27:00,
2013-01-10 13:32:00,58.8,32.6,30.60,SW,227,4.0,7.0,37,0.00,,SCT,0.00,434.00,VWS V14.01,2013-01-10 18:32:00,
2013-01-10 13:37:00,58.8,31.9,30.60,SW,236,2.0,7.0,36,0.00,,SCT,0.00,401.00,VWS V14.01,2013-01-10 18:37:00,
2013-01-10 13:42:00,59.1,33.5,30.60,SW,223,3.0,7.0,38,0.00,,SCT,0.00,432.00,VWS V14.01,2013-01-10 18:42:00,
2013-01-10 13:47:00,59.4,32.5,30.60,SW,221,0.0,7.0,36,0.00,,SCT,0.00,425.00,VWS V14.01,2013-01-10 18:47:00,
2013-01-10 13:52:00,59.4,32.5,30.60,SW,221,0.0,7.0,36,0.00,,SCT,0.00,425.00,VWS V14.01,2013-01-10 18:52:00,
2013-01-10 13:57:00,59.6,34.0,30.60,WSW,246,0.0,3.0,38,0.00,,SCT,0.00,406.00,VWS V14.01,2013-01-10 18:57:00,
2013-01-10 14:00:00,59.2,32.3,30.60,WSW,246,2.0,7.0,36,0.00,,SCT,0.00,415.00,VWS V14.01,2013-01-10 19:00:00,
2013-01-10 14:02:00,59.6,31.9,30.60,SW,235,2.0,4.0,35,0.00,,SCT,0.00,401.00,VWS V14.01,2013-01-10 19:02:00,
2013-01-10 14:07:00,59.7,31.3,30.60,South,185,3.0,6.0,34,0.00,,SCT,0.00,399.00,VWS V14.01,2013-01-10 19:07:00,
2013-01-10 14:12:00,59.9,30.8,30.60,WSW,239,4.0,6.0,33,0.00,,SCT,0.00,302.00,VWS V14.01,2013-01-10 19:12:00,
2013-01-10 14:17:00,59.5,31.1,30.59,WSW,244,5.0,6.0,34,0.00,,SCT,0.00,193.00,VWS V14.01,2013-01-10 19:17:00,
2013-01-10 14:22:00,59.6,30.5,30.59,West,260,2.0,6.0,33,0.00,,SCT,0.00,278.00,VWS V14.01,2013-01-10 19:22:00,
2013-01-10 14:27:00,59.6,31.2,30.59,SW,221,0.0,6.0,34,0.00,,SCT,0.00,325.00,VWS V14.01,2013-01-10 19:27:00,
2013-01-10 14:32:00,59.9,31.5,30.59,SW,221,1.0,6.0,34,0.00,,SCT,0.00,186.00,VWS V14.01,2013-01-10 19:32:00,
2013-01-10 14:37:00,59.8,32.1,30.59,WSW,248,4.0,6.0,35,0.00,,SCT,0.00,401.00,VWS V14.01,2013-01-10 19:37:00,
2013-01-10 14:42:00,60.0,33.0,30.59,WSW,254,0.0,6.0,36,0.00,,SCT,0.00,290.00,VWS V14.01,2013-01-10 19:42:00,
2013-01-10 14:47:00,60.4,34.0,30.59,West,261,3.0,6.0,37,0.00,,SCT,0.00,146.00,VWS V14.01,2013-01-10 19:47:00,
2013-01-10 14:52:00,60.1,34.4,30.59,WNW,290,0.0,6.0,38,0.00,,SCT,0.00,332.00,VWS V14.01,2013-01-10 19:52:00,
2013-01-10 14:57:00,60.3,33.9,30.59,WNW,287,5.0,5.0,37,0.00,,SCT,0.00,134.00,VWS V14.01,2013-01-10 19:57:00,
2013-01-10 15:00:00,60.3,33.9,30.59,WNW,290,0.0,6.0,37,0.00,,SCT,0.00,279.00,VWS V14.01,2013-01-10 20:00:00,
2013-01-10 15:02:00,60.1,33.8,30.59,WNW,296,0.0,5.0,37,0.00,,SCT,0.00,149.00,VWS V14.01,2013-01-10 20:02:00,
2013-01-10 15:07:00,60.0,33.7,30.59,WNW,296,0.0,5.0,37,0.00,,SCT,0.00,151.00,VWS V14.01,2013-01-10 20:07:00,
2013-01-10 15:12:00,60.1,33.8,30.59,West,279,3.0,5.0,37,0.00,,SCT,0.00,148.00,VWS V14.01,2013-01-10 20:12:00,
2013-01-10 15:17:00,60.1,33.1,30.59,West,279,0.0,5.0,36,0.00,,SCT,0.00,132.00,VWS V14.01,2013-01-10 20:17:00,
2013-01-10 15:22:00,60.2,33.8,30.59,West,271,4.0,5.0,37,0.00,,SCT,0.00,102.00,VWS V14.01,2013-01-10 20:22:00,
2013-01-10 15:27:00,60.0,33.7,30.60,SW,235,7.0,7.0,37,0.00,,SCT,0.00,91.00,VWS V14.01,2013-01-10 20:27:00,
2013-01-10 15:32:00,59.9,34.2,30.60,WSW,247,7.0,7.0,38,0.00,,SCT,0.00,93.00,VWS V14.01,2013-01-10 20:32:00,
2013-01-10 15:37:00,59.8,34.2,30.60,WNW,284,8.0,8.0,38,0.00,,SCT,0.00,95.00,VWS V14.01,2013-01-10 20:37:00,
2013-01-10 15:42:00,59.5,33.2,30.60,West,279,6.0,9.0,37,0.00,,SCT,0.00,90.00,VWS V14.01,2013-01-10 20:42:00,
2013-01-10 15:47:00,59.4,33.8,30.60,West,271,8.0,10.0,38,0.00,,SCT,0.00,65.00,VWS V14.01,2013-01-10 20:47:00,
2013-01-10 15:52:00,59.3,33.7,30.59,West,277,6.0,10.0,38,0.00,,SCT,0.00,42.00,VWS V14.01,2013-01-10 20:52:00,
2013-01-10 15:57:00,59.2,33.6,30.59,West,277,7.0,10.0,38,0.00,,SCT,0.00,32.00,VWS V14.01,2013-01-10 20:57:00,
2013-01-10 16:00:00,59.3,33.7,30.59,West,272,6.0,10.0,38,0.00,,SCT,0.00,33.00,VWS V14.01,2013-01-10 21:00:00,
2013-01-10 16:02:00,59.1,33.5,30.60,West,274,7.0,10.0,38,0.00,,SCT,0.00,37.00,VWS V14.01,2013-01-10 21:02:00,
2013-01-10 16:07:00,59.0,33.5,30.60,West,280,7.0,10.0,38,0.00,,SCT,0.00,35.00,VWS V14.01,2013-01-10 21:07:00,
2013-01-10 16:12:00,59.0,33.5,30.60,WNW,284,6.0,10.0,38,0.00,,SCT,0.00,35.00,VWS V14.01,2013-01-10 21:12:00,
2013-01-10 16:17:00,58.8,33.3,30.60,WSW,251,8.0,10.0,38,0.00,,SCT,0.00,37.00,VWS V14.01,2013-01-10 21:17:00,
2013-01-10 16:22:00,58.7,33.8,30.60,West,263,7.0,10.0,39,0.00,,SCT,0.00,32.00,VWS V14.01,2013-01-10 21:22:00,
2013-01-10 16:27:00,58.6,33.7,30.60,WNW,284,8.0,10.0,39,0.00,,SCT,0.00,28.00,VWS V14.01,2013-01-10 21:27:00,
2013-01-10 16:32:00,58.5,33.7,30.60,West,272,7.0,10.0,39,0.00,,SCT,0.00,25.00,VWS V14.01,2013-01-10 21:32:00,
2013-01-10 16:37:00,58.4,33.6,30.60,West,271,7.0,10.0,39,0.00,,SCT,0.00,19.00,VWS V14.01,2013-01-10 21:37:00,
2013-01-10 16:42:00,58.2,33.4,30.60,West,268,5.0,10.0,39,0.00,,SCT,0.00,14.00,VWS V14.01,2013-01-10 21:42:00,
2013-01-10 16:47:00,58.1,33.3,30.60,West,277,8.0,10.0,39,0.00,,SCT,0.00,9.00,VWS V14.01,2013-01-10 21:47:00,
2013-01-10 16:52:00,58.0,33.2,30.60,West,268,5.0,10.0,39,0.00,,SCT,0.00,7.00,VWS V14.01,2013-01-10 21:52:00,
2013-01-10 16:57:00,57.8,33.0,30.60,West,267,4.0,7.0,39,0.00,,SCT,0.00,7.00,VWS V14.01,2013-01-10 21:57:00,
2013-01-10 17:00:00,57.9,32.5,30.60,West,261,6.0,10.0,38,0.00,,SCT,0.00,7.00,VWS V14.01,2013-01-10 22:00:00,
2013-01-10 17:02:00,57.6,32.2,30.60,West,263,4.0,9.0,38,0.00,,SCT,0.00,5.00,VWS V14.01,2013-01-10 22:02:00,
2013-01-10 17:07:00,57.5,32.1,30.60,West,265,4.0,9.0,38,0.00,,SCT,0.00,0.00,VWS V14.01,2013-01-10 22:07:00,
2013-01-10 17:12:00,57.4,32.0,30.60,West,265,1.0,9.0,38,0.00,,SCT,0.00,0.00,VWS V14.01,2013-01-10 22:12:00,
2013-01-10 17:17:00,57.1,32.4,30.60,West,265,3.0,9.0,39,0.00,,SCT,0.00,0.00,VWS V14.01,2013-01-10 22:17:00,
2013-01-10 17:22:00,56.9,31.6,30.60,WSW,257,2.0,9.0,38,0.00,,SCT,0.00,0.00,VWS V14.01,2013-01-10 22:22:00,
2013-01-10 17:27:00,56.8,32.1,30.60,WSW,257,2.0,9.0,39,0.00,,SCT,0.00,0.00,VWS V14.01,2013-01-10 22:27:00,
2013-01-10 17:32:00,56.7,31.4,30.60,WSW,257,1.0,9.0,38,0.00,,SCT,0.00,0.00,VWS V14.01,2013-01-10 22:32:00,
2013-01-10 17:37:00,56.6,32.0,30.61,WSW,257,0.0,9.0,39,0.00,,SCT,0.00,0.00,VWS V14.01,2013-01-10 22:37:00,
2013-01-10 17:42:00,56.4,31.8,30.61,WSW,257,0.0,9.0,39,0.00,,SCT,0.00,0.00,VWS V14.01,2013-01-10 22:42:00,
2013-01-10 17:47:00,56.2,31.6,30.61,WSW,257,0.0,9.0,39,0.00,,SCT,0.00,0.00,VWS V14.01,2013-01-10 22:47:00,
2013-01-10 17:52:00,56.2,31.6,30.61,WSW,257,0.0,9.0,39,0.00,,SCT,0.00,0.00,VWS V14.01,2013-01-10 22:52:00,
2013-01-10 17:57:00,55.9,32.6,30.61,WSW,257,0.0,1.0,41,0.00,,SCT,0.00,0.00,VWS V14.01,2013-01-10 22:57:00,
2013-01-10 18:00:00,56.1,32.1,30.61,WSW,257,0.0,9.0,40,0.00,,SCT,0.00,0.00,VWS V14.01,2013-01-10 23:00:00,
2013-01-10 18:02:00,55.6,32.3,30.61,WSW,257,0.0,1.0,41,0.00,,SCT,0.00,0.00,VWS V14.01,2013-01-10 23:02:00,
2013-01-10 18:07:00,55.8,32.5,30.61,WSW,257,0.0,2.0,41,0.00,,SCT,0.00,0.00,VWS V14.01,2013-01-10 23:07:00,
2013-01-10 18:12:00,55.3,32.0,30.62,NNE,18,2.0,2.0,41,0.00,,SCT,0.00,0.00,VWS V14.01,2013-01-10 23:12:00,
2013-01-10 18:17:00,55.7,32.4,30.62,NNE,18,0.0,2.0,41,0.00,,SCT,0.00,0.00,VWS V14.01,2013-01-10 23:17:00,
2013-01-10 18:22:00,55.6,31.7,30.62,NNE,18,0.0,2.0,40,0.00,,SCT,0.00,0.00,VWS V14.01,2013-01-10 23:22:00,
2013-01-10 18:27:00,55.6,32.3,30.62,NNE,18,0.0,2.0,41,0.00,,SCT,0.00,0.00,VWS V14.01,2013-01-10 23:27:00,
2013-01-10 18:32:00,55.8,33.1,30.62,NNE,18,2.0,2.0,42,0.00,,SCT,0.00,0.00,VWS V14.01,2013-01-10 23:32:00,
2013-01-10 18:37:00,55.7,31.1,30.62,NNE,18,0.0,2.0,39,0.00,,SCT,0.00,0.00,VWS V14.01,2013-01-10 23:37:00,
2013-01-10 18:42:00,55.3,32.0,30.61,NNE,16,0.0,2.0,41,0.00,,SCT,0.00,0.00,VWS V14.01,2013-01-10 23:42:00,
2013-01-10 18:47:00,55.7,31.8,30.61,NNE,17,0.0,2.0,40,0.00,,SCT,0.00,0.00,VWS V14.01,2013-01-10 23:47:00,
2013-01-10 18:52:00,54.8,32.8,30.61,North,5,0.0,3.0,43,0.00,,SCT,0.00,0.00,VWS V14.01,2013-01-10 23:52:00,
2013-01-10 18:57:00,54.6,32.0,30.61,North,5,0.0,2.0,42,0.00,,SCT,0.00,0.00,VWS V14.01,2013-01-10 23:57:00,
2013-01-10 19:00:00,54.4,32.4,30.61,North,5,0.0,3.0,43,0.00,,SCT,0.00,0.00,VWS V14.01,2013-01-11 00:00:00,
2013-01-10 19:02:00,54.4,32.4,30.60,North,360,1.0,4.0,43,0.00,,SCT,0.00,0.00,VWS V14.01,2013-01-11 00:02:00,
2013-01-10 19:07:00,54.3,32.3,30.60,North,360,0.0,4.0,43,0.00,,SCT,0.00,0.00,VWS V14.01,2013-01-11 00:07:00,
2013-01-10 19:12:00,54.2,32.2,30.60,North,360,0.0,4.0,43,0.00,,SCT,0.00,0.00,VWS V14.01,2013-01-11 00:12:00,
2013-01-10 19:17:00,54.2,32.2,30.60,North,360,0.0,4.0,43,0.00,,SCT,0.00,0.00,VWS V14.01,2013-01-11 00:17:00,
2013-01-10 19:22:00,54.4,31.8,30.61,North,360,0.0,4.0,42,0.00,,SCT,0.00,0.00,VWS V14.01,2013-01-11 00:22:00,
2013-01-10 19:27:00,54.1,32.1,30.61,North,360,0.0,4.0,43,0.00,,SCT,0.00,0.00,VWS V14.01,2013-01-11 00:27:00,
2013-01-10 19:32:00,53.6,33.3,30.60,North,360,0.0,4.0,46,0.00,,SCT,0.00,0.00,VWS V14.01,2013-01-11 00:32:00,
2013-01-10 19:37:00,53.3,33.1,30.60,North,360,0.0,4.0,46,0.00,,SCT,0.00,0.00,VWS V14.01,2013-01-11 00:37:00,
2013-01-10 19:42:00,53.0,32.8,30.60,North,360,0.0,4.0,46,0.00,,SCT,0.00,0.00,VWS V14.01,2013-01-11 00:42:00,
2013-01-10 19:47:00,53.0,33.3,30.60,North,360,0.0,4.0,47,0.00,,SCT,0.00,0.00,VWS V14.01,2013-01-11 00:47:00,
2013-01-10 19:52:00,52.8,33.2,30.60,North,360,0.0,4.0,47,0.00,,SCT,0.00,0.00,VWS V14.01,2013-01-11 00:52:00,
2013-01-10 19:57:00,52.6,33.0,30.60,North,360,0.0,0.0,47,0.00,,SCT,0.00,0.00,VWS V14.01,2013-01-11 00:57:00,
2013-01-10 20:00:00,52.9,33.2,30.60,North,360,0.0,4.0,47,0.00,,SCT,0.00,0.00,VWS V14.01,2013-01-11 01:00:00,
2013-01-10 20:02:00,52.5,33.4,30.60,North,360,1.0,1.0,48,0.00,,SCT,0.00,0.00,VWS V14.01,2013-01-11 01:02:00,
2013-01-10 20:07:00,51.9,33.4,30.60,North,360,0.0,1.0,49,0.00,,SCT,0.00,0.00,VWS V14.01,2013-01-11 01:07:00,
2013-01-10 20:12:00,51.7,33.7,30.60,North,360,1.0,2.0,50,0.00,,SCT,0.00,0.00,VWS V14.01,2013-01-11 01:12:00,
2013-01-10 20:18:00,51.2,34.2,30.60,North,360,0.0,2.0,52,0.00,,SCT,0.00,0.00,VWS V14.01,2013-01-11 01:18:00,
2013-01-10 20:23:00,50.7,33.7,30.61,North,360,0.0,2.0,52,0.00,,SCT,0.00,0.00,VWS V14.01,2013-01-11 01:23:00,
2013-01-10 20:28:00,50.8,34.3,30.61,North,360,0.0,2.0,53,0.00,,SCT,0.00,0.00,VWS V14.01,2013-01-11 01:28:00,
2013-01-10 20:33:00,50.9,33.9,30.61,North,360,0.0,2.0,52,0.00,,SCT,0.00,0.00,VWS V14.01,2013-01-11 01:33:00,
2013-01-10 20:38:00,50.6,34.1,30.61,North,360,1.0,2.0,53,0.00,,SCT,0.00,0.00,VWS V14.01,2013-01-11 01:38:00,
2013-01-10 20:43:00,51.1,34.1,30.61,North,360,0.0,2.0,52,0.00,,SCT,0.00,0.00,VWS V14.01,2013-01-11 01:43:00,
2013-01-10 20:48:00,51.6,33.6,30.60,North,360,2.0,2.0,50,0.00,,SCT,0.00,0.00,VWS V14.01,2013-01-11 01:48:00,
2013-01-10 20:53:00,51.7,33.2,30.61,North,360,0.0,2.0,49,0.00,,SCT,0.00,0.00,VWS V14.01,2013-01-11 01:53:00,
2013-01-10 20:58:00,51.6,33.1,30.60,North,360,0.0,1.0,49,0.00,,SCT,0.00,0.00,VWS V14.01,2013-01-11 01:58:00,
2013-01-10 21:00:00,51.6,33.1,30.60,North,360,0.0,2.0,49,0.00,,SCT,0.00,0.00,VWS V14.01,2013-01-11 02:00:00,
2013-01-10 21:03:00,51.7,32.7,30.60,North,360,0.0,1.0,48,0.00,,SCT,0.00,0.00,VWS V14.01,2013-01-11 02:03:00,
2013-01-10 21:08:00,51.5,33.0,30.60,North,360,0.0,1.0,49,0.00,,SCT,0.00,0.00,VWS V14.01,2013-01-11 02:08:00,
2013-01-10 21:13:00,51.1,32.6,30.61,North,360,0.0,1.0,49,0.00,,SCT,0.00,0.00,VWS V14.01,2013-01-11 02:13:00,
2013-01-10 21:18:00,51.1,33.1,30.61,North,360,0.0,1.0,50,0.00,,SCT,0.00,0.00,VWS V14.01,2013-01-11 02:18:00,
2013-01-10 21:23:00,50.9,32.9,30.61,North,360,0.0,1.0,50,0.00,,SCT,0.00,0.00,VWS V14.01,2013-01-11 02:23:00,
2013-01-10 21:28:00,50.6,33.2,30.61,North,360,0.0,1.0,51,0.00,,SCT,0.00,0.00,VWS V14.01,2013-01-11 02:28:00,
2013-01-10 21:33:00,50.6,32.7,30.60,SE,126,2.0,4.0,50,0.00,,SCT,0.00,0.00,VWS V14.01,2013-01-11 02:33:00,
2013-01-10 21:38:00,51.8,31.7,30.61,South,175,0.0,5.0,46,0.00,,SCT,0.00,0.00,VWS V14.01,2013-01-11 02:38:00,
2013-01-10 21:43:00,52.0,32.9,30.61,South,175,0.0,5.0,48,0.00,,SCT,0.00,0.00,VWS V14.01,2013-01-11 02:43:00,
2013-01-10 21:48:00,51.5,32.0,30.61,South,183,0.0,5.0,47,0.00,,SCT,0.00,0.00,VWS V14.01,2013-01-11 02:48:00,
2013-01-10 21:53:00,51.8,32.8,30.61,South,183,2.0,5.0,48,0.00,,SCT,0.00,0.00,VWS V14.01,2013-01-11 02:53:00,
2013-01-10 21:58:00,51.7,32.1,30.61,SSW,213,2.0,4.0,47,0.00,,SCT,0.00,0.00,VWS V14.01,2013-01-11 02:58:00,
2013-01-10 22:00:00,51.7,32.1,30.61,South,188,4.0,5.0,47,0.00,,SCT,0.00,0.00,VWS V14.01,2013-01-11 03:00:00,
2013-01-10 22:03:00,51.4,32.4,30.61,SW,215,3.0,4.0,48,0.00,,SCT,0.00,0.00,VWS V14.01,2013-01-11 03:03:00,
2013-01-10 22:08:00,51.3,31.8,30.61,SSW,211,2.0,4.0,47,0.00,,SCT,0.00,0.00,VWS V14.01,2013-01-11 03:08:00,
2013-01-10 22:13:00,50.9,32.9,30.61,SSW,211,0.0,4.0,50,0.00,,SCT,0.00,0.00,VWS V14.01,2013-01-11 03:13:00,
2013-01-10 22:18:00,50.0,32.1,30.60,SSW,212,3.0,4.0,50,0.00,,SCT,0.00,0.00,VWS V14.01,2013-01-11 03:18:00,
2013-01-10 22:23:00,49.7,32.8,30.60,SW,217,0.0,4.0,52,0.00,,SCT,0.00,0.00,VWS V14.01,2013-01-11 03:23:00,
2013-01-10 22:28:00,49.6,32.2,30.60,SSW,200,1.0,4.0,51,0.00,,SCT,0.00,0.00,VWS V14.01,2013-01-11 03:28:00,
2013-01-10 22:33:00,50.3,32.4,30.60,South,181,4.0,4.0,50,0.00,,SCT,0.00,0.00,VWS V14.01,2013-01-11 03:33:00,
2013-01-10 22:38:00,50.9,31.9,30.60,South,190,4.0,5.0,48,0.00,,SCT,0.00,0.00,VWS V14.01,2013-01-11 03:38:00,
2013-01-10 22:43:00,50.5,33.5,30.60,SSW,206,0.0,5.0,52,0.00,,SCT,0.00,0.00,VWS V14.01,2013-01-11 03:43:00,
2013-01-10 22:48:00,48.3,33.3,30.60,SSW,209,0.0,5.0,56,0.00,,SCT,0.00,0.00,VWS V14.01,2013-01-11 03:48:00,
2013-01-10 22:53:00,47.0,33.4,30.60,SW,222,1.0,5.0,59,0.00,,SCT,0.00,0.00,VWS V14.01,2013-01-11 03:53:00,
2013-01-10 22:58:00,46.3,33.6,30.60,SW,222,0.0,2.0,61,0.00,,SCT,0.00,0.00,VWS V14.01,2013-01-11 03:58:00,
2013-01-10 23:00:00,46.8,33.7,30.60,SW,222,2.0,5.0,60,0.00,,SCT,0.00,0.00,VWS V14.01,2013-01-11 04:00:00,
2013-01-10 23:03:00,45.7,33.4,30.60,SW,222,0.0,2.0,62,0.00,,SCT,0.00,0.00,VWS V14.01,2013-01-11 04:03:00,
2013-01-10 23:08:00,46.3,34.0,30.60,SW,222,2.0,2.0,62,0.00,,SCT,0.00,0.00,VWS V14.01,2013-01-11 04:08:00,
2013-01-10 23:13:00,46.0,34.5,30.60,SW,222,0.0,3.0,64,0.00,,SCT,0.00,0.00,VWS V14.01,2013-01-11 04:13:00,
2013-01-10 23:18:00,46.3,35.2,30.60,SW,222,0.0,3.0,65,0.00,,SCT,0.00,0.00,VWS V14.01,2013-01-11 04:18:00,
2013-01-10 23:23:00,46.1,35.0,30.60,SW,222,0.0,3.0,65,0.00,,SCT,0.00,0.00,VWS V14.01,2013-01-11 04:23:00,
2013-01-10 23:28:00,46.1,35.0,30.60,SW,222,1.0,3.0,65,0.00,,SCT,0.00,0.00,VWS V14.01,2013-01-11 04:28:00,
2013-01-10 23:33:00,45.8,35.1,30.60,SW,222,0.0,3.0,66,0.00,,SCT,0.00,0.00,VWS V14.01,2013-01-11 04:33:00,
2013-01-10 23:38:00,45.1,34.8,30.60,SW,222,0.0,3.0,67,0.00,,SCT,0.00,0.00,VWS V14.01,2013-01-11 04:38:00,
2013-01-10 23:43:00,44.6,35.1,30.60,SW,222,0.0,3.0,69,0.00,,SCT,0.00,0.00,VWS V14.01,2013-01-11 04:43:00,
2013-01-10 23:48:00,44.6,35.1,30.60,SW,223,1.0,3.0,69,0.00,,SCT,0.00,0.00,VWS V14.01,2013-01-11 04:48:00,
2013-01-10 23:53:00,44.7,34.8,30.60,SW,222,2.0,3.0,68,0.00,,SCT,0.00,0.00,VWS V14.01,2013-01-11 04:53:00,
2013-01-10 23:58:00,44.9,35.4,30.59,SW,222,0.0,2.0,69,0.00,,SCT,0.00,0.00,VWS V14.01,2013-01-11 04:58:00,